Starlink 11592

operational
NORAD ID: 63560 Int'l Des: 2025-075 Owner: SPXS Country: US Constellation: starlink
LEOCIRCULAR

Starlink 11592について

説明を読み込み中...

リアルタイム位置

3D地球を読み込み中...

次回通過

高度履歴

Altitude vs Time

uPlot chart will show altitude changes over time

軌道要素

1 63560U 25075N 25257.96825382 .00234145 00000-0 17637-2 0 9998
2 63560 43.0003 132.8605 0002927 239.0450 121.0130 15.71021512 25617
Epoch: Sep 14, 2025 • Age: 13 hours

現在のステータス

高度 366.5 km
速度 7.69 km/s
衛星直下点 -42.54°S, 155.4°W
打ち上げ日 Apr 13, 2025
運用期間 0.4 years
タイプ internet

技術仕様

分類 Payload
質量 960.00 kg
乾燥質量 910.00 kg
総質量 960.00 kg
長さ 0.30 m
直径 4.10 m
スパン 29.00 m
形状 Box + pan
製造者 SPXS
バスタイプ Starlink V2MD
フェーズステータス In Orbit
所有者/国 SPXS/US

大規模コンステレーション

Loading constellations...